Dewpoint
53 54 55 55 55 55 54 55 55 56 55 55 55 56 56 56 56 56 56 56 55 54 54 53 53 54 54 53 53 52 50 50 48 47 47 48 52 52 52 52 52 52 51
53 53 53 55 55 54 54 54 55 54 55 54 54 55 55 55 56 56 55 55 55 55 54 54 54 54 54 54 53 51 52 51 50 48 48 48 51 52 53 53 52 51 51
54 54 54 53 53 53 54 53 54 54 54 54 53 53 53 54 54 55 55 55 55 54 54 54 54 54 53 52 52 51 51 51 51 50 49 50 50 52 53 53 53 53 52
54 53 53 54 54 54 54 54 53 53 53 53 53 53 53 53 53 53 54 54 54 53 53 53 53 53 53 52 52 52 51 51 51 52 52 52 51 51 52 52 52 53 51
43 43 44 46 47 50 52 54 55 54 53 53 53 53 53 53 54 53 53 53 53 53 53 53 53 53 52 52 51 51 52 51 51 51 50 50 50 50 51 51 51 51 51
35 35 36 38 40 41 43 45 46 46 48 52 53 52 52 48 37 40 47 53 53 53 52 53 53 52 52 50 49 49 50 50 50 50 49 49 49 50 50 50 50 50 49
32 31 32 34 35 36 37 38 40 42 43 44 43 43 40 34 33 35 36 43 49 51 52 52 52 52 52 52 50 48 48 48 48 49 49 49 49 49 50 49 49 49 49
28 28 30 32 32 33 34 36 37 40 41 38 36 34 35 32 32 33 34 40 44 47 50 51 51 50 51 50 51 51 50 49 47 47 48 49 40 34 37 43 46 47 36
26 27 29 29 30 31 32 34 36 37 36 32 31 30 30 30 30 31 33 37 41 43 35 32 32 34 35 36 41 48 50 39 31 30 30 29 28 28 29 36 37 38 34
24 26 27 28 29 29 30 32 32 31 30 29 28 28 28 28 28 29 32 36 36 33 29 28 29 31 31 32 36 38 37 30 27 25 24 24 24 24 24 25 29 34 32
23 24 25 25 27 28 28 29 29 28 28 27 27 27 26 27 26 27 27 28 27 25 24 24 26 26 27 28 27 27 26 25 24 23 22 21 21 21 21 21 21 22 21
22 23 23 24 25 25 26 26 26 26 26 26 25 25 25 25 25 25 24 24 23 22 21 22 23 23 23 23 23 23 22 21 20 18 17 17 18 19 19 19 20 20 20
22 22 22 22 22 23 24 23 23 23 23 22 22 22 23 24 24 23 22 22 22 23 22 21 20 20 20 21 20 19 19 19 18 16 16 17 18 19 21 21 20 20 18
21 21 21 21 21 21 22 22 22 21 21 21 21 22 22 23 24 23 23 23 22 22 20 19 19 18 18 18 19 19 19 18 17 16 16 17 18 17 16 17 16 15 10
20 20 20 20 20 20 21 21 21 23 22 21 21 21 21 21 23 23 23 21 20 18 19 18 18 17 17 16 16 15 16 16 16 16 15 14 12 11 11 11 10 9 8
19 19 19 19 19 18 17 18 20 20 21 21 21 21 22 22 21 20 19 17 16 16 16 16 15 15 14 13 13 12 11 10 11 10 10 10 9 9 9 10 9 7 5
19 19 18 18 17 17 16 15 15 15 16 17 18 19 19 19 18 17 15 15 14 14 13 12 11 11 9 8 7 7 7 7 7 7 7 8 8 7 6 5 6 4 3
17 16 17 16 16 15 15 14 13 13 13 12 12 14 15 15 15 14 12 12 11 10 10 9 9 8 7 5 5 4 4 5 5 5 5 6 6 5 4 3 2 3 2
17 16 15 15 14 13 13 12 11 9 9 9 9 8 8 9 9 9 9 9 8 7 6 6 7 6 5 5 5 5 4 4 4 4 3 3 4 3 2 1 1 1 1
15 14 14 14 13 12 11 9 8 7 6 5 5 6 6 6 6 5 6 6 5 5 5 4 4 4 4 4 4 4 2 1 1 1 2 2 3 2 1 1 1 1 0
15 13 12 12 12 11 10 8 7 6 4 3 3 4 3 3 3 2 2 3 3 2 3 3 3 4 3 2 1 1 -1 -0 -1 -1 -1 -0 1 0 -0 0 1 0 -1
13 12 11 10 9 8 7 6 5 4 3 2 2 2 2 3 2 1 1 2 2 1 1 1 1 1 0 0 -0 -0 -1 -2 -2 -2 -2 -2 -1 -1 -0 -0 -0 -0 -1
10 10 8 8 7 6 6 5 5 4 3 3 2 1 1 2 1 1 1 2 1 1 1 1 1 -0 -1 -1 -1 -1 -2 -3 -3 -4 -3 -3 -2 -1 -1 -1 -1 -1 -1
9 9 7 7 7 5 6 5 4 2 3 3 2 1 1 1 1 0 0 1 1 1 1 1 -0 -1 -2 -1 -1 -2 -3 -4 -4 -5 -5 -4 -3 -3 -2 -2 -2 -2 -1
7 6 6 5 5 4 4 4 3 3 3 2 2 1 -0 -1 -1 -2 -2 -2 -1 -0 -1 -1 -1 -1 -1 -2 -2 -3 -4 -5 -5 -6 -4 -4 -5 -4 -4 -3 -3 -2 -2
4 4 4 4 3 3 3 2 2 1 1 1 0 -0 -1 -2 -3 -3 -3 -3 -2 -2 -2 -2 -2 -2 -2 -2 -2 -3 -4 -6 -6 -7 -5 -4 -4 -4 -3 -3 -3 -3 -3
Wind_Speed
13 12 12 11 12 12 12 11 12 11 12 13 14 15 17 19 18 18 18 17 21 21 18 18 21 17 16 15 12 14 14 16 21 26 21 19 17 20 20 19 21 21 21
10 9 10 9 10 11 12 12 10 11 12 15 15 15 16 17 19 20 19 16 21 21 22 22 24 20 23 24 23 22 21 24 21 32 26 25 24 23 23 24 23 21 22
8 8 7 8 9 9 10 11 12 12 12 13 14 17 18 19 20 20 20 22 22 22 22 22 24 23 24 22 23 23 23 21 23 25 31 26 26 22 22 22 24 24 23
6 6 5 2 7 8 9 10 12 12 13 14 16 16 17 18 18 18 19 20 22 24 24 24 25 27 28 27 26 27 26 26 25 24 27 30 27 26 23 25 26 22 24
17 17 14 13 14 12 8 1 7 12 12 13 14 16 17 17 15 18 20 22 23 24 25 27 28 30 32 32 26 29 27 27 26 28 29 30 29 27 28 26 27 26 27
19 18 15 15 14 14 13 12 12 14 16 8 4 10 13 6 24 18 16 21 23 25 26 27 28 30 33 34 37 39 33 29 30 29 30 32 33 31 29 28 30 30 33
21 19 17 15 15 15 13 13 14 14 14 15 16 13 14 16 21 20 15 9 18 20 23 24 26 23 27 29 32 39 41 43 44 40 39 35 34 32 29 30 31 31 34
20 16 15 14 14 14 14 14 14 12 14 14 15 16 13 17 23 22 19 7 8 13 19 22 21 21 22 21 26 27 27 27 22 26 32 32 14 8 10 13 16 18 1
16 16 14 14 15 15 15 15 15 14 15 15 15 17 15 18 26 25 21 9 5 7 17 23 20 15 18 16 13 21 24 4 21 26 24 22 21 23 16 6 12 12 3
17 14 12 14 15 15 14 14 15 15 15 14 16 16 20 17 29 29 23 11 10 11 17 20 28 23 22 21 9 7 2 9 12 16 18 21 19 21 26 17 6 8 6
14 14 16 16 16 15 15 16 17 16 15 16 17 17 18 21 23 29 27 19 15 16 17 19 22 27 28 29 28 22 16 15 18 18 17 17 19 20 20 21 21 18 11
15 17 19 19 18 17 18 19 18 17 17 17 16 16 15 16 22 23 25 24 20 19 17 15 17 27 31 30 28 29 27 21 19 19 20 19 18 18 18 17 22 22 19
16 19 19 19 20 20 20 18 18 17 17 17 17 16 16 14 13 18 23 23 23 20 17 20 22 23 25 27 32 30 23 20 19 20 18 16 15 14 11 13 15 16 20
16 16 18 21 22 22 20 20 19 17 17 16 15 15 15 16 15 13 13 13 15 16 16 17 18 20 22 21 21 22 20 18 17 17 15 11 11 14 14 14 12 10 13
14 15 16 17 20 22 23 21 20 22 19 15 15 15 16 17 17 17 16 13 12 12 13 16 18 18 19 18 18 18 17 16 17 14 13 12 12 12 13 11 12 11 11
13 14 14 14 13 12 13 17 25 25 26 26 24 18 16 18 19 19 19 19 18 15 17 17 17 17 17 15 15 15 15 15 14 12 12 12 12 11 10 11 11 10 9
13 12 12 12 11 11 10 10 10 12 21 24 23 22 20 17 16 16 18 23 22 18 18 16 15 14 14 14 13 13 14 14 12 13 12 11 11 11 11 11 10 9 10
13 13 13 11 11 11 11 10 10 10 10 12 16 19 20 20 20 17 13 14 17 19 17 15 14 13 12 12 12 11 11 12 12 12 12 11 11 10 10 10 10 9 8
10 11 11 11 11 11 10 11 10 11 10 10 10 12 14 16 19 22 21 17 15 14 13 13 11 11 11 10 10 10 10 11 10 10 10 10 10 9 9 9 8 9 8
11 12 11 10 10 10 9 9 9 9 10 10 11 11 9 8 14 15 15 14 13 12 10 10 10 9 9 8 8 8 8 9 9 9 9 9 8 8 8 7 7 7 7
8 9 9 9 9 8 8 9 9 9 9 10 11 11 10 11 10 11 11 12 11 10 9 9 8 8 8 9 8 8 9 8 8 8 7 7 7 7 6 6 6 6 7
7 8 8 9 8 8 8 8 9 9 9 9 8 10 10 10 9 10 10 10 9 9 8 7 7 8 8 8 8 7 8 8 9 9 7 6 6 6 5 5 5 5 6
8 8 8 9 8 8 9 8 9 8 8 8 7 7 7 8 7 7 7 6 7 6 6 6 6 7 7 7 8 8 8 8 7 7 6 6 5 4 4 4 5 5 6
7 8 8 7 7 7 7 7 7 7 6 6 5 5 5 4 4 4 3 4 4 4 4 5 6 6 6 6 5 6 6 6 6 6 5 5 4 3 3 3 4 4 5
7 8 7 7 6 6 6 6 5 5 3 3 2 2 2 2 2 3 3 3 3 3 4 3 3 3 4 3 3 5 5 6 6 5 4 3 3 3 3 3 4 4 5
6 6 6 5 5 5 5 4 3 2 1 1 2 1 0 1 2 2 2 2 2 2 3 3 4 4 3 1 2 4 6 7 6 3 4 3 3 3 3 3 4 5 6
Wind_Direction
162 171 170 176 182 187 193 190 186 183 174 181 188 188 187 186 186 188 200 204 213 220 224 228 234 236 245 243 233 234 239 237 254 266 258 259 245 240 242 234 233 239 245
157 160 176 173 176 189 201 207 204 198 187 181 183 189 195 199 202 204 204 200 208 210 215 220 228 229 232 233 235 235 237 239 235 254 259 260 247 249 251 249 243 238 243
149 161 175 188 192 207 207 206 208 211 206 194 193 196 200 205 208 208 212 215 215 220 219 220 224 223 228 228 229 233 237 245 247 251 262 260 260 259 255 251 249 251 247
107 101 63 242 216 212 216 212 209 213 218 214 210 211 213 213 212 212 217 222 225 228 228 228 227 230 233 233 233 237 239 243 244 241 249 262 259 258 253 256 259 248 251
63 62 47 37 47 53 44 23 213 205 217 221 223 227 230 232 227 222 221 223 230 234 235 236 237 236 236 235 234 238 240 242 246 248 250 252 259 260 255 257 257 259 258
63 49 35 37 37 34 34 39 45 47 43 40 260 233 225 80 26 14 283 242 233 234 239 239 239 236 239 237 234 239 242 244 245 247 252 254 255 257 260 258 260 261 266
60 47 35 31 36 31 31 37 36 34 38 42 39 34 53 38 11 10 356 297 266 258 252 252 251 247 242 244 240 239 243 244 244 251 257 256 259 255 256 256 254 254 258
40 41 39 37 38 35 35 39 37 38 47 48 44 37 43 26 8 357 342 309 295 279 275 273 279 277 265 261 250 248 242 243 257 251 256 266 298 344 278 271 280 274 99
41 38 37 41 44 42 41 35 38 48 52 54 51 48 43 28 13 4 348 320 306 17 60 40 20 357 332 325 303 268 258 107 74 71 66 65 47 31 14 274 266 270 336
47 37 41 50 52 50 47 49 54 59 63 62 56 48 41 31 19 16 12 2 50 58 55 44 32 33 33 25 13 319 334 76 86 67 55 50 45 44 37 28 346 212 179
60 55 45 47 55 56 60 60 66 66 66 63 60 52 47 35 32 32 35 45 56 57 50 44 40 40 47 53 60 65 85 83 66 65 57 52 46 38 41 41 37 44 61
64 67 61 55 52 52 55 57 59 63 64 59 59 54 46 43 38 44 48 59 65 69 61 55 53 52 54 56 59 66 68 65 67 62 58 42 44 47 48 49 53 55 52
74 70 68 67 64 62 63 62 60 58 63 60 56 53 45 39 46 47 54 60 63 73 74 71 64 58 55 55 58 59 56 62 64 61 56 55 42 39 39 50 55 57 54
80 78 74 69 68 63 62 58 60 58 62 62 60 55 51 47 43 45 52 58 64 69 68 61 60 61 61 60 53 49 54 62 74 76 71 57 48 42 40 34 34 51 53
78 78 75 73 73 69 60 57 59 53 55 61 57 54 51 49 45 51 55 55 61 60 71 64 57 51 51 50 52 58 54 45 48 49 53 56 58 54 47 44 51 55 57
70 67 65 71 70 72 79 74 58 60 57 56 54 55 57 57 56 57 60 61 59 65 66 62 56 51 49 45 46 43 41 53 53 49 53 52 48 46 51 49 52 58 61
68 69 71 68 67 70 69 71 80 63 55 52 47 52 51 50 53 57 61 62 56 61 62 58 57 53 52 51 49 46 48 39 39 57 54 50 50 49 44 45 41 40 46
72 70 75 74 75 72 70 68 65 58 52 43 40 39 47 48 49 46 51 60 53 54 58 56 54 52 51 53 51 50 48 43 47 40 43 44 44 46 44 41 38 34 33
68 69 75 75 72 74 71 66 63 61 57 49 39 40 34 43 49 50 52 59 59 58 56 56 52 52 52 53 53 51 48 47 45 45 44 38 37 41 45 36 37 35 25
73 71 76 79 75 72 72 74 74 70 65 57 49 35 33 46 49 46 50 57 60 57 56 58 54 52 52 52 49 42 47 43 39 38 38 35 31 33 35 29 27 25 25
82 76 78 81 79 78 78 78 77 77 75 69 58 40 36 65 64 58 56 54 55 55 50 52 51 46 47 46 42 42 40 36 29 23 21 21 20 22 21 24 24 22 15
69 73 72 74 74 72 75 76 76 77 77 78 74 56 48 63 63 64 62 57 50 47 42 46 53 52 47 43 35 37 38 33 25 18 17 13 11 18 16 23 17 14 9
64 73 73 72 78 83 79 77 79 78 77 74 69 63 55 59 62 64 59 49 43 42 39 57 69 63 51 45 41 39 37 27 11 359 354 356 2 9 9 15 14 7 8
66 76 84 81 82 85 86 88 86 81 84 82 78 73 68 66 69 67 49 27 26 36 46 62 63 51 46 43 43 43 34 13 357 352 339 336 341 351 358 1 7 6 360
69 76 80 87 91 94 96 88 87 88 92 98 107 108 103 78 58 25 10 2 9 42 50 44 23 15 22 25 44 29 19 10 359 341 338 336 340 338 352 356 356 353 360
72 78 87 96 98 97 96 98 93 92 116 156 170 168 139 7 7 2 19 34 45 29 359 359 349 349 354 26 36 8 355 350 344 337 335 343 343 348 340 342 346 340 348